Weather in Moca

Dominican Republic     19°23′40″N   70°31′26″W
temp.,
°C
wind,
m/s
gust,
m/s
humid.,
%
clouds,
%
prec.,
mm/h
press.,
hPa
HPBL,
m
16 october, sat
sat1623:00+22s01969 0.4 101411
02:00+21nw0096100 0.4 101211
05:00+21wnw019689 0.0 101211
08:00+23w01905 0.0 101388
11:00+31ese115431 0.0 10131341
14:00+26ene227963 1.0 1012395
17:00+25ne128876 3.4 1012129
20:00+22ne1196100 7.3 101415
17 october, sun
sun1723:00+22ene1198100 1.2 101517
02:00+22se1198100 1.4 101314
05:00+21sse119894 0.1 101316
08:00+23sse11948 0.1 1014114
11:00+30sse1258100 0.0 10141194
14:00+27ne217871 2.9 1012780
17:00+25nne1292100 5.9 101259
20:00+22e1197100 14.2 101417
18 october, mon
mon1823:00+22sse009999 2.7 101523
02:00+21s009813 2.7 101313
05:00+21sw009781 0.0 101312
08:00+23sw019349 0.0 1014102
11:00+29sse116033 0.2 10141249
14:00+26nne228346 3.9 1012656
17:00+24nne2394100 6.6 1012177
20:00+22nnw0097100 12.3 101414
19 october, tue
tue1923:00+22sse0097100 1.3 101514
02:00+22e119787 1.3 101412
05:00+21se119774 0.0 101412
08:00+23se1192100 0.0 1016103
11:00+29se126182 0.1 10161248
14:00+26ne2286100 6.2 1014387
17:00+23ne1297100 4.7 101473
20:00+22e119792 6.6 101618
20 october, wed
wed2023:00+22ese129877 0.8 101752
02:00+22ese1197100 0.9 101627
05:00+21ese119799 0.0 101513
08:00+23ese129452 0.0 1017121
11:00+28ese237199 0.7 1017988
14:00+27ene237796 3.3 1015897
17:00+26ene247284 0.9 1015801
20:00+22e119644 1.3 101723